Terug naar catalogus

BREEZE-M DEB

ActiefHEO
NORAD 38646·DEBRIS·🇷🇺 Russia

Gelanceerd Mar 14, 2008 vanaf Baikonur Cosmodrome

Loading…

Volgende Passages (komende 24 uur)

TLE

VersSource: Space-Track

Epoch: Sep 14, 2026, 11:39 UTC

1 38646U 08011CV  26257.48592453  .00001033  00000-0  46769-1 0  9999
2 38646  49.3231  19.7685 6370128 212.1841  88.2096  3.05980220151967

Volg BREEZE-M DEB in realtime met AllMySat

Download on the App Store